CW0101 Weather Reports


time (UTC)temp
C
wind
direction
speed
KPH
gust
KPH
rain 1hr
cm
rain 24hr
cm
rain mn
cm
humidity
%
barometer
mb
20260503051228 14 226 3.2 6.4 0.00 0.00 0.00 50 1010.3
20260503050724 15 257 4.8 12.9 0.00 0.00 0.00 50 1010.2
20260503050221 15 200 3.2 9.7 0.00 0.00 0.00 50 1010.4
20260503045719 15 235 4.8 12.9 0.00 0.00 0.00 49 1010.3
20260503045216 15 184 3.2 9.7 0.00 0.00 0.00 50 1009.9
20260503044712 14 239 6.4 14.5 0.00 0.00 0.00 49 1010.5
20260503044210 15 246 9.7 11.3 0.00 0.00 0.00 49 1010.6
20260503043706 15 277 4.8 9.7 0.00 0.00 0.00 48 1010.3
20260503043204 15 255 12.9 12.9 0.00 0.00 0.00 48 1010.7
20260503042700 15 266 4.8 11.3 0.00 0.00 0.00 48 1010.7
20260503042156 15 195 3.2 6.4 0.00 0.00 0.00 48 1010.7
20260503041652 14 200 1.6 6.4 0.00 0.00 0.00 48 1010.6
20260503041150 15 223 1.6 6.4 0.00 0.00 0.00 48 1010.8
20260503040648 14 221 3.2 4.8 0.00 0.00 0.00 48 1010.7
20260503040145 15 200 1.6 6.4 0.00 0.00 0.00 47 1010.8
20260503035641 15 188 0.0 8.0 0.00 0.00 0.00 47 1011.1
20260503035139 15 257 4.8 9.7 0.00 0.00 0.00 47 1010.7
20260503034637 14 268 3.2 6.4 0.00 0.00 0.00 47 1011.2
20260503034133 14 245 3.2 6.4 0.00 0.00 0.00 47 1011.3
20260503033630 14 263 0.0 6.4 0.00 0.00 0.00 48 1011.4
20260503033128 13 233 3.2 6.4 0.00 0.00 0.00 50 1011.3
20260503032626 13 176 3.2 3.2 0.00 0.00 0.00 49 1011.5
20260503032125 13 167 3.2 4.8 0.00 0.00 0.00 49 1011.7
20260503031622 13 237 3.2 8.0 0.00 0.00 0.00 49 1011.6
20260503031119 13 224 3.2 8.0 0.00 0.00 0.00 49 1011.5
20260503030615 13 247 4.8 8.0 0.00 0.00 0.00 49 1011.6
20260503030112 14 271 6.4 6.4 0.00 0.00 0.00 48 1011.7
20260503025609 14 200 0.0 4.8 0.00 0.00 0.00 48 1011.8
20260503025107 14 200 0.0 3.2 0.00 0.00 0.00 47 1011.6
20260503024603 14 215 0.0 4.8 0.00 0.00 0.00 47 1011.7
20260503024100 14 188 3.2 4.8 0.00 0.00 0.00 46 1011.9
20260503023557 14 219 3.2 3.2 0.00 0.00 0.00 46 1011.7
20260503023054 14 219 3.2 6.4 0.00 0.00 0.00 46 1011.9
20260503022550 14 188 1.6 4.8 0.00 0.00 0.00 45 1011.8
20260503022045 14 215 0.0 4.8 0.00 0.00 0.00 46 1011.8
20260503021542 14 228 3.2 4.8 0.00 0.00 0.00 45 1011.8
20260503021039 14 212 1.6 8.0 0.00 0.00 0.00 45 1011.9
20260503020536 14 200 1.6 4.8 0.00 0.00 0.00 46 1011.9
20260503020033 14 179 0.0 4.8 0.00 0.00 0.00 45 1011.8
20260503015529 14 219 3.2 4.8 0.00 0.00 0.00 45 1011.8
20260503015027 14 212 1.6 4.8 0.00 0.00 0.00 45 1011.8
20260503014522 14 174 3.2 4.8 0.00 0.00 0.00 45 1011.8
20260503014021 14 214 3.2 4.8 0.00 0.00 0.00 45 1011.7
20260503013518 14 221 3.2 6.4 0.00 0.00 0.00 45 1011.7
20260503013015 15 189 1.6 9.7 0.00 0.00 0.00 44 1011.7
20260503012513 15 210 4.8 4.8 0.00 0.00 0.00 45 1011.9
20260503012009 15 184 3.2 6.4 0.00 0.00 0.00 44 1011.9
20260503011506 15 205 1.6 4.8 0.00 0.00 0.00 44 1011.9
20260503011003 15 182 3.2 6.4 0.00 0.00 0.00 44 1011.7
20260503010459 15 185 6.4 6.4 0.00 0.00 0.00 43 1012.0
20260503005956 15 232 4.8 6.4 0.00 0.00 0.00 43 1012.1
20260503005453 15 203 4.8 8.0 0.00 0.00 0.00 42 1011.9
20260503004950 15 218 4.8 4.8 0.00 0.00 0.00 42 1011.9
20260503004447 15 181 0.0 4.8 0.00 0.00 0.00 41 1012.0
20260503003945 15 210 3.2 9.7 0.00 0.00 0.00 41 1012.0
20260503003441 16 194 4.8 4.8 0.00 0.00 0.00 40 1012.1
20260503002938 16 196 3.2 6.4 0.00 0.00 0.00 40 1012.2
20260503002435 16 216 0.0 8.0 0.00 0.00 0.00 40 1012.2
20260503001932 16 271 0.0 11.3 0.00 0.00 0.00 40 1012.2
20260503001428 16 225 6.4 8.0 0.00 0.00 0.00 39 1012.4
20260503000926 16 223 4.8 8.0 0.00 0.00 0.00 40 1012.3
20260503000423 16 236 4.8 9.7 0.00 0.00 0.00 39 1012.3
20260502235920 16 239 6.4 14.5 0.00 0.00 0.00 39 1012.3
20260502235417 16 259 6.4 17.7 0.00 0.00 0.00 39 1012.6
20260502234914 16 228 4.8 11.3 0.00 0.00 0.00 39 1012.5
20260502234411 16 261 9.7 20.9 0.00 0.00 0.00 39 1012.5
20260502233908 16 243 8.0 17.7 0.00 0.00 0.00 39 1012.6
20260502233403 16 235 9.7 17.7 0.00 0.00 0.00 38 1012.7
20260502232900 16 277 16.1 20.9 0.00 0.00 0.00 38 1012.9
20260502232357 16 257 8.0 11.3 0.00 0.00 0.00 39 1012.9
20260502231854 16 241 11.3 17.7 0.00 0.00 0.00 39 1013.0
20260502231351 16 205 4.8 19.3 0.00 0.00 0.00 39 1012.9
20260502230849 16 278 12.9 29.0 0.00 0.00 0.00 38 1013.0
20260502230347 16 265 17.7 19.3 0.00 0.00 0.00 38 1012.9
20260502225844 16 287 17.7 25.7 0.00 0.00 0.00 38 1013.1
20260502225340 16 282 9.7 24.1 0.00 0.00 0.00 38 1013.2
20260502224838 16 301 17.7 27.4 0.00 0.00 0.00 38 1013.0
20260502224334 16 269 19.3 27.4 0.00 0.00 0.00 37 1013.3
20260502223831 16 285 14.5 27.4 0.00 0.00 0.00 38 1013.2
20260502223323 17 257 9.7 27.4 0.00 0.00 0.00 37 1013.1
20260502222820 16 261 29.0 38.6 0.00 0.00 0.00 37 1013.4
20260502222318 16 258 11.3 19.3 0.00 0.00 0.00 37 1013.6
20260502221814 16 285 12.9 29.0 0.00 0.00 0.00 38 1013.4
20260502221310 16 257 11.3 20.9 0.00 0.00 0.00 37 1013.7
20260502220807 16 266 17.7 32.2 0.00 0.00 0.00 37 1013.4
20260502220303 16 253 8.0 30.6 0.00 0.00 0.00 37 1013.3
20260502215800 16 274 14.5 35.4 0.00 0.00 0.00 37 1013.6
20260502215257 15 305 16.1 29.0 0.00 0.00 0.00 37 1013.5
20260502214754 16 312 16.1 24.1 0.00 0.00 0.00 38 1013.7
20260502214250 16 297 12.9 24.1 0.00 0.00 0.00 37 1013.7
20260502213748 16 290 4.8 16.1 0.00 0.00 0.00 37 1013.7
20260502213245 16 298 11.3 30.6 0.00 0.00 0.00 37 1014.0
20260502212744 16 262 17.7 19.3 0.00 0.00 0.00 37 1014.2
20260502212242 16 257 12.9 22.5 0.00 0.00 0.00 36 1014.2
20260502211737 16 305 6.4 17.7 0.00 0.00 0.00 36 1014.3
20260502211234 16 310 14.5 27.4 0.00 0.00 0.00 36 1014.3
20260502210731 16 277 16.1 27.4 0.00 0.00 0.00 36 1014.2
20260502210229 16 261 9.7 16.1 0.00 0.00 0.00 36 1014.3
20260502205726 15 312 19.3 20.9 0.00 0.00 0.00 36 1014.3
20260502205216 16 310 25.7 29.0 0.00 0.00 0.00 35 1014.5
20260502204713 15 255 19.3 29.0 0.00 0.00 0.00 36 1014.4
20260502204211 16 278 8.0 24.1 0.00 0.00 0.00 35 1014.9
20260502203709 16 222 8.0 17.7 0.00 0.00 0.00 35 1014.7
20260502203207 16 236 12.9 17.7 0.00 0.00 0.00 35 1014.6
20260502202700 16 289 14.5 27.4 0.00 0.00 0.00 36 1014.9
20260502202159 15 284 16.1 32.2 0.00 0.00 0.00 36 1014.9
20260502201656 16 272 24.1 32.2 0.00 0.00 0.00 36 1015.1
20260502201152 16 245 6.4 20.9 0.00 0.00 0.00 35 1015.1
20260502200648 16 358 17.7 24.1 0.00 0.00 0.00 34 1015.0
20260502200144 16 252 12.9 27.4 0.00 0.00 0.00 34 1014.9
20260502195643 15 311 16.1 25.7 0.00 0.00 0.00 34 1015.1
20260502195139 15 241 17.7 32.2 0.00 0.00 0.00 34 1015.4
20260502194636 15 253 22.5 30.6 0.00 0.00 0.00 35 1015.6
20260502194133 15 315 17.7 27.4 0.00 0.00 0.00 35 1015.6
20260502193629 15 276 25.7 30.6 0.00 0.00 0.00 35 1015.6
20260502193126 15 268 14.5 25.7 0.00 0.00 0.00 36 1015.6
20260502192621 15 276 11.3 24.1 0.00 0.00 0.00 36 1015.7
20260502192119 15 272 17.7 24.1 0.00 0.00 0.00 35 1015.9
20260502191616 14 279 16.1 24.1 0.00 0.00 0.00 36 1015.8
20260502191113 15 302 6.4 17.7 0.00 0.00 0.00 37 1015.8
20260502190610 15 239 11.3 29.0 0.00 0.00 0.00 36 1016.0
20260502190108 15 247 14.5 24.1 0.00 0.00 0.00 36 1016.0
20260502185602 15 231 6.4 25.7 0.00 0.00 0.00 35 1016.3
20260502185059 15 290 4.8 20.9 0.00 0.00 0.00 35 1016.0
20260502184556 15 253 11.3 25.7 0.00 0.00 0.00 34 1016.3
20260502184051 14 311 16.1 25.7 0.00 0.00 0.00 35 1016.2
20260502183548 13 283 8.0 24.1 0.00 0.00 0.00 35 1016.4
20260502183044 14 327 22.5 43.5 0.00 0.00 0.00 35 1016.3
20260502182539 14 332 12.9 24.1 0.00 0.00 0.00 35 1016.8
20260502182036 13 297 22.5 40.2 0.00 0.00 0.00 35 1016.9
20260502181534 14 273 22.5 29.0 0.00 0.00 0.00 35 1016.7
20260502181032 13 318 11.3 22.5 0.00 0.00 0.00 35 1016.8
20260502180529 13 298 19.3 27.4 0.00 0.00 0.00 34 1016.9
20260502170447 13 280 8.0 25.7 0.00 0.00 0.00 36 1017.6
20260502163925 12 312 19.3 27.4 0.00 0.00 0.00 36 1018.0
20260502163422 13 303 22.5 38.6 0.00 0.00 0.00 37 1018.0
20260502162920 13 296 16.1 24.1 0.00 0.00 0.00 38 1017.7
20260502162416 12 252 8.0 30.6 0.00 0.00 0.00 40 1018.0
20260502161913 12 250 19.3 30.6 0.00 0.00 0.00 40 1018.1
20260502161409 12 339 14.5 24.1 0.00 0.00 0.00 41 1018.2
20260502160907 12 290 11.3 30.6 0.00 0.00 0.00 40 1018.2
20260502160405 12 340 16.1 25.7 0.00 0.00 0.00 38 1018.3
20260502151843 11 322 17.7 22.5 0.00 0.00 0.00 45 1018.5
20260502151340 11 264 6.4 14.5 0.00 0.00 0.00 49 1018.7
20260502150837 11 286 4.8 9.7 0.00 0.00 0.00 49 1018.5
20260502150334 11 242 4.8 14.5 0.00 0.00 0.00 52 1018.9
20260502130722 5 246 11.3 14.5 0.00 0.00 0.00 69 1019.3
20260502130220 5 245 4.8 14.5 0.00 0.00 0.00 68 1019.3
20260502123706 3 224 3.2 9.7 0.00 0.00 0.00 68 1019.5
20260502123202 3 260 4.8 8.0 0.00 0.00 0.00 68 1019.4
20260502122659 3 248 3.2 4.8 0.00 0.00 0.00 70 1019.4
20260502122155 3 241 3.2 6.4 0.00 0.00 0.00 70 1019.3
20260502121653 3 249 1.6 3.2 0.00 0.00 0.00 69 1019.3
20260502121151 3 214 1.6 3.2 0.00 0.00 0.00 70 1019.2
20260502120647 3 200 0.0 0.0 0.00 0.00 0.00 70 1019.4
20260502120144 3 200 0.0 3.2 0.00 0.00 0.00 71 1019.2
20260502115642 3 195 0.0 1.6 0.00 0.00 0.00 74 1019.3
20260502115137 3 185 0.0 3.2 0.00 0.00 0.00 74 1019.3
20260502114633 2 200 0.0 1.6 0.00 0.00 0.00 73 1019.1
20260502114131 2 193 0.0 3.2 0.00 0.00 0.00 74 1019.2
20260502113628 2 200 0.0 1.6 0.00 0.00 0.00 76 1019.1
20260502113127 2 140 0.0 1.6 0.00 0.00 0.00 78 1019.2
20260502112625 2 185 0.0 0.0 0.00 0.00 0.00 80 1019.3
20260502112122 1 186 0.0 3.2 0.00 0.00 0.00 81 1019.0
20260502111619 0 200 1.6 1.6 0.00 0.00 0.00 82 1018.9
20260502111116 0 193 0.0 1.6 0.00 0.00 0.00 83 1019.0
20260502110614 0 134 0.0 1.6 0.00 0.00 0.00 83 1019.0
20260502110111 0 253 0.0 4.8 0.00 0.00 0.00 84 1019.0
20260502105609 1 220 0.0 3.2 0.00 0.00 0.00 85 1019.1
20260502105106 1 200 0.0 4.8 0.00 0.00 0.00 85 1019.0
20260502104603 1 268 4.8 6.4 0.00 0.00 0.00 82 1019.2
20260502104100 1 240 0.0 3.2 0.00 0.00 0.00 78 1019.2
20260502103558 1 200 0.0 1.6 0.00 0.00 0.00 76 1019.2
20260502103056 1 164 1.6 3.2 0.00 0.00 0.00 76 1019.1
20260502102551 1 177 0.0 0.0 0.00 0.00 0.00 75 1019.1
20260502102049 1 131 1.6 3.2 0.00 0.00 0.00 75 1019.1
20260502101547 1 254 0.0 0.0 0.00 0.00 0.00 74 1019.0
20260502101045 1 134 0.0 1.6 0.00 0.00 0.00 74 1019.1
20260502100543 1 146 0.0 1.6 0.00 0.00 0.00 74 1019.2
20260502091518 1 101 3.2 4.8 0.00 0.00 0.00 76 1019.2
20260502091015 1 120 3.2 4.8 0.00 0.00 0.00 76 1019.3
20260502090512 1 114 3.2 4.8 0.00 0.00 0.00 77 1019.2
20260502071406 1 125 1.6 4.8 0.00 0.00 0.00 77 1019.5
20260502070905 1 122 3.2 4.8 0.00 0.00 0.00 77 1019.7
20260502070402 1 125 4.8 4.8 0.00 0.00 0.00 77 1019.6
20260502065901 1 119 3.2 4.8 0.00 0.00 0.00 76 1019.8
20260502065359 2 137 3.2 3.2 0.00 0.00 0.00 75 1019.8
20260502064856 2 121 4.8 4.8 0.00 0.00 0.00 74 1019.9
20260502064354 2 117 1.6 4.8 0.00 0.00 0.00 73 1019.9
20260502063850 2 101 3.2 3.2 0.00 0.00 0.00 73 1019.8
20260502063349 2 110 0.0 3.2 0.00 0.00 0.00 73 1019.9
20260502062845 2 110 1.6 3.2 0.00 0.00 0.00 74 1019.9
20260502062343 2 69 1.6 3.2 0.00 0.00 0.00 74 1019.9
20260502061842 2 152 3.2 4.8 0.00 0.00 0.00 74 1019.9
20260502061339 2 135 3.2 4.8 0.00 0.00 0.00 74 1019.8
20260502060835 2 129 3.2 4.8 0.00 0.00 0.00 74 1019.9
20260502060330 2 114 3.2 4.8 0.00 0.00 0.00 74 1020.0
20260502055828 2 110 1.6 4.8 0.00 0.00 0.00 73 1019.8
20260502055326 2 123 3.2 6.4 0.00 0.00 0.00 72 1019.9
20260502054825 2 134 3.2 4.8 0.00 0.00 0.00 72 1019.9
20260502054322 3 20 0.0 4.8 0.00 0.00 0.00 71 1019.9
20260502053819 3 147 3.2 3.2 0.00 0.00 0.00 71 1019.9
20260502053316 3 99 3.2 4.8 0.00 0.00 0.00 71 1019.7
20260502052814 3 140 3.2 4.8 0.00 0.00 0.00 70 1019.7
20260502052312 3 129 3.2 4.8 0.00 0.00 0.00 70 1019.5
20260502051810 3 116 3.2 4.8 0.00 0.00 0.00 69 1019.9